FW9340 Weather Reports


Display with metric or nautical units.
time (UTC)temp
F
wind
direction
speed
MPH
gust
MPH
rain 1hr
in
rain 24hr
in
rain mn
in
humidity
%
barometer
mb
20260504081542 46 0 0.0 0.0 0.00 0.00 0.00 73 1015.3
20260504044544 43 0 0.0 0.0 0.00 0.00 0.00 74 1015.6
20260504043043 42 0 0.0 0.0 0.00 0.00 0.00 73 1015.6
20260504041541 44 0 0.0 0.0 0.00 0.00 0.00 69 1015.6
20260504040048 45 0 0.0 0.0 0.00 0.00 0.00 68 1015.7
20260504034542 43 0 0.0 0.0 0.00 0.00 0.00 69 1015.6
20260504033052 42 0 0.0 0.0 0.00 0.00 0.00 70 1015.5
20260504031550 43 0 0.0 0.0 0.00 0.00 0.00 72 1015.3
20260504030043 44 0 0.0 0.0 0.00 0.00 0.00 71 1015.2
20260504024554 44 0 0.0 0.0 0.00 0.00 0.00 68 1015.2
20260504023044 44 0 0.0 0.0 0.00 0.00 0.00 68 1015.2
20260504021551 45 0 0.0 0.0 0.00 0.00 0.00 67 1015.1
20260504020047 46 0 0.0 0.0 0.00 0.00 0.00 65 1015.1
20260504014543 46 0 0.0 0.0 0.00 0.00 0.00 64 1015.0
20260504013047 47 0 0.0 0.0 0.00 0.00 0.00 61 1015.1
20260504011546 48 0 0.0 0.0 0.00 0.00 0.00 60 1014.9
20260504010046 49 0 0.0 0.0 0.00 0.00 0.00 56 1014.9
20260504004556 50 0 0.0 0.0 0.00 0.00 0.00 54 1014.6
20260504003042 52 0 0.0 0.0 0.00 0.00 0.00 51 1014.5
20260504001543 55 0 0.0 0.0 0.00 0.00 0.00 44 1014.3
20260504000050 57 0 0.0 4.0 0.00 0.00 0.00 38 1014.3
20260503234542 59 245 2.0 9.0 0.00 0.00 0.00 35 1014.1
20260503233041 59 272 2.0 6.0 0.00 0.00 0.00 34 1014.1
20260503231549 60 250 3.0 10.0 0.00 0.00 0.00 34 1013.9
20260503230051 60 288 2.0 6.0 0.00 0.00 0.00 34 1013.8
20260503224546 60 283 6.0 14.0 0.00 0.00 0.00 31 1013.9
20260503223043 60 316 8.0 15.0 0.00 0.00 0.00 31 1014.1
20260503221543 60 296 7.0 15.0 0.00 0.00 0.00 31 1014.1
20260503220048 60 278 7.0 12.0 0.00 0.00 0.00 31 1013.9
20260503214545 60 224 5.0 16.0 0.00 0.00 0.00 32 1014.0
20260503213043 60 291 5.0 12.0 0.00 0.00 0.00 32 1014.0
20260503211542 60 295 3.0 15.0 0.00 0.00 0.00 33 1013.9
20260503210040 60 290 9.0 17.0 0.00 0.00 0.00 32 1014.2
20260503204548 60 236 9.0 17.0 0.00 0.00 0.00 33 1014.0
20260503203042 59 321 6.0 15.0 0.00 0.00 0.00 33 1014.2
20260503201542 59 257 9.0 17.0 0.00 0.00 0.00 34 1014.5
20260503200041 58 278 10.0 17.0 0.00 0.00 0.00 35 1014.5
20260503194543 58 330 7.0 18.0 0.00 0.00 0.00 36 1014.8
20260503193055 58 252 10.0 20.0 0.00 0.00 0.00 37 1015.1
20260503191543 57 269 7.0 17.0 0.00 0.00 0.00 39 1015.3
20260503190047 56 298 11.0 20.0 0.00 0.00 0.00 39 1015.3
20260503184554 56 248 8.0 19.0 0.00 0.00 0.00 40 1015.4
20260503183044 55 262 7.0 19.0 0.00 0.00 0.00 42 1015.6
20260503181542 55 281 11.0 21.0 0.00 0.00 0.00 40 1015.8
20260503180042 54 236 6.0 17.0 0.00 0.00 0.00 42 1016.0
20260503174600 54 304 6.0 22.0 0.00 0.00 0.00 42 1016.1
20260503173057 54 254 10.0 19.0 0.00 0.00 0.00 40 1016.2
20260503171542 53 37 10.0 21.0 0.00 0.00 0.00 43 1016.3